ICE958 BIKF-LPFR

Flight info

Callsign ICE958
Flight time N/A
Altitude 37000
Route RIMUM1C RIMUM DCT RUMUX DCT RAPAX DCT AGORI/N0453F370 DCT OSBOX/M079F370 DCT LASNO DCT BEGAS/N0452F370 DCT PINEK DCT DIGAL DCT ALAGU
Aircraft B38M/M-SDE1FGHILORVWXY/HB1

Departure

Time 2026-04-30 20:17
Airport Keflavik International Airport (BIKF)

Arrival

Time N/A
Airport Faro - Gago Coutinho International Airport (LPFR)
Time Latitude Longitude Altitude Speed Heading
2026-04-30 20:05 63.99379 -22.62194 141 ft 0 kts 238°
2026-04-30 20:12 63.99382 -22.62183 143 ft 4 kts 238°
2026-04-30 20:13 63.99397 -22.62133 144 ft 4 kts 233°
2026-04-30 20:13 63.99414 -22.62086 144 ft 4 kts 221°
2026-04-30 20:13 63.99436 -22.62058 144 ft 4 kts 182°
2026-04-30 20:13 63.99447 -22.62063 144 ft 1 kts 150°
2026-04-30 20:14 63.99444 -22.62060 144 ft 2 kts 150°
2026-04-30 20:15 63.99404 -22.62011 144 ft 12 kts 155°
2026-04-30 20:15 63.99285 -22.61988 144 ft 23 kts 180°
2026-04-30 20:15 63.99177 -22.61946 144 ft 4 kts 109°
2026-04-30 20:15 63.99176 -22.61852 145 ft 10 kts 91°
2026-04-30 20:16 63.99174 -22.61615 149 ft 20 kts 91°
2026-04-30 20:16 63.99174 -22.61235 157 ft 28 kts 90°
2026-04-30 20:16 63.99173 -22.60728 169 ft 32 kts 89°
2026-04-30 20:16 63.99063 -22.60523 176 ft 26 kts 185°
2026-04-30 20:17 63.98834 -22.60568 174 ft 51 kts 179°
2026-04-30 20:17 63.98205 -22.60545 175 ft 127 kts 179°
2026-04-30 20:17 63.97138 -22.60579 422 ft 166 kts 183°
2026-04-30 20:17 63.96002 -22.60582 1567 ft 155 kts 183°
2026-04-30 20:18 63.94874 -22.60341 2278 ft 176 kts 171°
2026-04-30 20:18 63.93646 -22.59264 2816 ft 202 kts 159°
2026-04-30 20:18 63.92302 -22.57802 3359 ft 225 kts 158°
2026-04-30 20:18 63.90848 -22.56219 4027 ft 244 kts 158°
2026-04-30 20:19 63.89259 -22.54494 4748 ft 262 kts 158°
2026-04-30 20:19 63.87601 -22.52701 5743 ft 264 kts 159°
2026-04-30 20:19 63.85923 -22.50889 6675 ft 270 kts 159°
2026-04-30 20:19 63.84213 -22.49045 7622 ft 274 kts 160°
2026-04-30 20:20 63.82475 -22.47176 8501 ft 279 kts 160°
2026-04-30 20:20 63.80705 -22.45274 9386 ft 285 kts 161°
2026-04-30 20:20 63.78893 -22.43331 10210 ft 291 kts 161°
2026-04-30 20:20 63.77007 -22.41313 10703 ft 309 kts 161°
2026-04-30 20:21 63.75001 -22.39166 11056 ft 330 kts 161°
2026-04-30 20:21 63.72871 -22.36890 11504 ft 346 kts 162°
2026-04-30 20:21 63.70662 -22.34534 12055 ft 357 kts 162°
2026-04-30 20:21 63.68392 -22.32117 12709 ft 364 kts 162°
2026-04-30 20:22 63.66078 -22.29659 13437 ft 370 kts 163°
2026-04-30 20:22 63.63736 -22.27173 14092 ft 375 kts 163°
2026-04-30 20:22 63.61365 -22.24661 14745 ft 379 kts 163°
2026-04-30 20:22 63.58993 -22.22154 15375 ft 383 kts 163°
2026-04-30 20:23 63.56572 -22.19602 15953 ft 387 kts 164°
2026-04-30 20:23 63.54123 -22.17023 16553 ft 391 kts 164°
2026-04-30 20:23 63.51647 -22.14421 17177 ft 395 kts 164°
2026-04-30 20:23 63.49148 -22.11801 17778 ft 399 kts 164°
2026-04-30 20:24 63.46619 -22.09153 18344 ft 403 kts 164°
2026-04-30 20:24 63.44059 -22.06478 18858 ft 406 kts 164°
2026-04-30 20:24 63.41487 -22.03797 19363 ft 410 kts 164°
2026-04-30 20:24 63.38894 -22.01099 19872 ft 413 kts 164°
2026-04-30 20:25 63.33633 -21.95643 20862 ft 420 kts 164°
2026-04-30 20:25 63.30973 -21.92892 21352 ft 423 kts 164°
2026-04-30 20:26 63.25633 -21.87387 22223 ft 430 kts 164°
2026-04-30 20:26 63.20166 -21.81773 23169 ft 436 kts 164°
2026-04-30 20:26 63.17399 -21.78943 23597 ft 439 kts 164°
2026-04-30 20:27 63.11809 -21.73239 24383 ft 444 kts 164°
2026-04-30 20:27 63.06507 -21.65881 25223 ft 469 kts 141°
2026-04-30 20:28 63.02116 -21.55020 25960 ft 476 kts 137°
2026-04-30 20:28 62.97694 -21.44080 26767 ft 480 kts 137°
2026-04-30 20:29 62.93240 -21.33108 27522 ft 483 kts 137°
2026-04-30 20:30 62.86508 -21.16626 28538 ft 489 kts 137°
2026-04-30 20:30 62.79636 -20.99927 29491 ft 495 kts 137°
2026-04-30 20:31 62.72658 -20.83097 30273 ft 501 kts 137°
2026-04-30 20:32 62.65592 -20.66184 31062 ft 505 kts 137°
2026-04-30 20:32 62.60857 -20.54922 31763 ft 503 kts 137°
2026-04-30 20:33 62.58495 -20.49324 32125 ft 502 kts 137°
2026-04-30 20:33 62.53786 -20.38210 32749 ft 500 kts 137°
2026-04-30 20:33 62.51460 -20.32740 33084 ft 499 kts 137°
2026-04-30 20:34 62.46761 -20.21733 33766 ft 497 kts 137°
2026-04-30 20:34 62.42079 -20.10813 34398 ft 493 kts 138°
2026-04-30 20:35 62.39752 -20.05401 34640 ft 493 kts 138°
2026-04-30 20:35 62.37382 -20.00050 34837 ft 491 kts 142°
2026-04-30 20:35 62.32318 -19.90220 35244 ft 490 kts 144°
2026-04-30 20:36 62.29770 -19.85340 35415 ft 490 kts 144°
2026-04-30 20:36 62.27218 -19.80470 35643 ft 490 kts 144°
2026-04-30 20:36 62.22117 -19.70769 36054 ft 490 kts 144°
2026-04-30 20:37 62.19561 -19.65926 36252 ft 490 kts 144°
2026-04-30 20:37 62.17003 -19.61090 36440 ft 491 kts 144°
2026-04-30 20:37 62.14439 -19.56254 36627 ft 491 kts 144°
2026-04-30 20:37 62.11905 -19.51487 36804 ft 491 kts 144°
2026-04-30 20:38 62.09340 -19.46672 36970 ft 491 kts 144°
2026-04-30 20:38 62.04197 -19.37051 36973 ft 489 kts 144°
2026-04-30 20:39 61.96534 -19.22802 37001 ft 488 kts 144°
2026-04-30 20:40 61.88851 -19.08612 37012 ft 488 kts 144°
2026-04-30 20:40 61.83725 -18.99199 37013 ft 488 kts 144°
2026-04-30 20:41 61.76034 -18.85158 37020 ft 486 kts 144°
2026-04-30 20:41 61.70915 -18.75866 37040 ft 485 kts 145°
2026-04-30 20:42 61.65844 -18.66703 37036 ft 484 kts 145°
2026-04-30 20:43 61.58157 -18.52888 37046 ft 484 kts 145°
2026-04-30 20:43 61.53908 -18.45283 37042 ft 482 kts 145°
2026-04-30 20:44 61.45952 -18.32687 37071 ft 476 kts 152°
2026-04-30 20:45 61.34940 -18.17335 37072 ft 475 kts 152°
2026-04-30 20:45 61.29425 -18.09703 37050 ft 474 kts 152°
2026-04-30 20:46 61.18481 -17.94664 37088 ft 473 kts 152°
2026-04-30 20:47 61.10239 -17.83420 37098 ft 473 kts 152°
2026-04-30 20:48 61.01995 -17.72244 37094 ft 471 kts 152°
2026-04-30 20:48 60.96510 -17.64848 37108 ft 471 kts 152°
2026-04-30 20:49 60.91027 -17.57486 37112 ft 471 kts 152°
2026-04-30 20:50 60.82826 -17.46528 37120 ft 471 kts 152°
2026-04-30 20:50 60.77330 -17.39224 37094 ft 470 kts 152°
2026-04-30 20:51 60.71832 -17.31948 37134 ft 470 kts 152°
2026-04-30 20:51 60.63583 -17.21088 37136 ft 471 kts 152°
2026-04-30 20:52 60.58084 -17.13884 37143 ft 471 kts 152°
2026-04-30 20:53 60.49854 -17.03158 37139 ft 470 kts 152°
2026-04-30 20:53 60.44343 -16.96013 37152 ft 470 kts 152°
2026-04-30 20:54 60.36070 -16.85342 37156 ft 470 kts 152°
2026-04-30 20:55 60.27782 -16.74715 37123 ft 470 kts 153°
2026-04-30 20:55 60.22257 -16.67668 37170 ft 470 kts 152°
2026-04-30 20:56 60.13986 -16.57171 37178 ft 470 kts 152°
2026-04-30 20:57 60.05675 -16.46685 37178 ft 470 kts 152°
2026-04-30 20:57 60.04923 -16.45741 37179 ft 470 kts 152°
2026-04-30 20:58 60.02509 -16.42709 37182 ft 470 kts 152°
2026-04-30 20:58 59.97874 -16.36901 37178 ft 470 kts 152°
2026-04-30 20:59 59.89545 -16.26516 37191 ft 470 kts 152°
2026-04-30 21:00 59.78434 -16.12758 37200 ft 470 kts 152°
2026-04-30 21:01 59.70106 -16.02518 37207 ft 470 kts 152°
2026-04-30 21:02 59.61803 -15.92367 37211 ft 470 kts 152°
2026-04-30 21:02 59.56246 -15.85608 37211 ft 470 kts 152°
2026-04-30 21:03 59.50682 -15.78866 37209 ft 469 kts 152°
2026-04-30 21:03 59.45127 -15.72163 37230 ft 466 kts 151°
2026-04-30 21:04 59.39616 -15.65536 37221 ft 464 kts 152°
2026-04-30 21:04 59.31357 -15.55656 37224 ft 464 kts 152°
2026-04-30 21:05 59.25842 -15.49089 37222 ft 464 kts 152°
2026-04-30 21:05 59.20336 -15.42558 37218 ft 461 kts 152°
2026-04-30 21:06 59.14887 -15.36119 37221 ft 461 kts 152°
2026-04-30 21:06 59.09404 -15.29664 37226 ft 461 kts 152°
2026-04-30 21:07 59.03918 -15.23231 37226 ft 461 kts 152°
2026-04-30 21:07 58.98415 -15.16802 37209 ft 461 kts 152°
2026-04-30 21:08 58.92943 -15.10432 37225 ft 458 kts 152°
2026-04-30 21:08 58.87484 -15.04102 37231 ft 458 kts 152°
2026-04-30 21:09 58.82014 -14.97782 37233 ft 458 kts 152°
2026-04-30 21:09 58.76541 -14.91483 37233 ft 458 kts 152°
2026-04-30 21:10 58.71083 -14.85224 37222 ft 456 kts 152°
2026-04-30 21:10 58.65670 -14.79038 37228 ft 455 kts 153°
2026-04-30 21:11 58.60227 -14.72842 37229 ft 455 kts 153°
2026-04-30 21:11 58.54776 -14.66660 37236 ft 455 kts 153°
2026-04-30 21:12 58.49335 -14.60511 37235 ft 455 kts 153°
2026-04-30 21:12 58.43889 -14.54379 37237 ft 454 kts 153°